Location: Bletchingley
(51.2333°N, 0.1000°W)
Time: 13:07:58
(UTC+00:00)

ARIANE 5 R/B - Pass Details

Date: 18 September 2020
Orbit: 620 x 657 km, 98.2° (Epoch: 09 October)

Event Time Altitude Azimuth Distance (km) Brightness Sun altitude
Exits shadow 19:37:43 20° 81° (E) 1,443 3.9 -14.7°
Maximum altitude 19:38:46 22° 61° (ENE) 1,368 4.0 -14.8°
Drops below altitude 10° 19:42:07 10° 10° (N) 2,003 5.3 -15.3°
Sets 19:44:40 0° 356° (N) 2,913 6.4 -15.7°
